Location: Newark
(30.2500°N, 97.7500°W)
Time: 08:32:54
(UTC+00:00)

LightSail 2 - Visible Passes

Search period start: 10 December 2019 00:00
Search period end: 20 December 2019 00:00
Orbit: 696 x 730 km, 24.0° (Epoch: 10 December)

Date Brightness Start Highest point End Pass type
(mag) Time Alt. Az. Time Alt. Az. Time Alt. Az.
10 Dec 7.1 01:21:04 10° WSW 01:24:58 22° SSW 01:27:41 15° SSE visible
11 Dec 7.0 00:22:40 10° WSW 00:27:00 27° SSW 00:31:17 10° SE visible
11 Dec 7.8 02:10:45 10° SW 02:11:56 11° SSW 02:12:43 10° SSW visible
12 Dec 7.7 01:11:08 10° SW 01:14:00 15° SSW 01:16:51 10° SSE visible
13 Dec 7.6 00:12:22 10° WSW 00:16:02 19° SSW 00:19:40 10° SSE visible
15 Dec 7.9 00:02:43 10° SW 00:04:59 13° SSW 00:07:13 10° S visible
